STARLINK-32491, 62043

Orbit data source: Space-Track

STARLINK-32491, 62043 is a payload satellite owned by SpaceX/Seattle (US) in LEO that was launched on Thu, 21 Nov 2024 UTC via an FALCON 9 launch vehicle from the Air Force Eastern Test Range (AFETR). Payload-class satellites include a variety of spacecraft equipped with specific instruments for various scientific and technological missions. These include communications satellites like Starlink; space stations such as the ISS; scientific satellites like the Hubble; Earth observation satellites from companies like Planet Labs, Umbra, and HawkEye 360; GPS; miniature CubeSats for education and research; and military/defense satellites.

Loading next visibility...
Identifier
62043, 2024-216M
Orbit
LEO
Country
Flag of USUS
Related business
Manufacturer
SpaceX/Seattle
Mission
Operational spacecraft
Bus & Motor
STARLINK V2M, Unknown motor
Mass
730 kg wet, ~700 kg dry
Launch date (UTC)
2024-11-21 (1 year ago)
Launch vehicle
FALCON 9
Launch site
Air Force Eastern Test Range (AFETR)
Object type
Payload
Rocket body
Debris
Shape & HBR
Unknown shape, 17.7 m
Radar Cross Section
Large (>1 m²)

Expand to show TLE details & history
Last TLE update: 14 hours ago

TLE from 14 hours ago
0 STARLINK-32491
1 62043U 24216M   25346.82057004  .00044956  00000-0  16332-2 0  9991
2 62043  42.9986  34.3919 0001334 286.7653  73.3053 15.27581147 60505
Epoch: 2025-12-12T19:41Z
TLE epoch observation values (Epoch: 2025-12-12T19:41:37.251Z)
Latitude
0.00004°
Longitude
17.23002°
Altitude
482.558 km
Speed
7.626 km/s
True Right ascension
02h 17m 34s
True Declination
0° 00' 00"
Sunlit
Object was in full shadow at epoch
Visualization orbit readout
Latitude
Unknown
Longitude
Unknown
Altitude
Unknown
Speed
Unknown
Apparent Right ascension
Unknown
Apparent Declination
Unknown
Sunlit
N/A
Visualization observer readout
Local Sidereal Time
08:01:44
Azimuth
Unknown
Elevation
Unknown
Doppler factor
Unknown
Orbital elements
Apogee altitude
485.907 km
Perigee altitude
484.076 km
Semi-major axis
6,863.128 km
Eccentricity
0.00013
Inclination
42.9986°
RAAN
34.3919°
Arg. of periapsis
286.7653°
True anomaly
73.31994°
Mean anomaly
73.3053°
Eccentric anomaly
73.31262°
Mean motion
3.81733 °/min
Orbital period
94.31 mins
BSTAR
0.0016332
Loading maneuver chart data...
Computing Atmospheric mass density...
Loading historical data...
Loading historical data...
Loading historical data...
Loading historical data...
Loading historical data...
Loading historical data...
Loading historical data...

Documentation

Showing up to 5 results
|